Weather History for KDDC - May, 2014

Change the Weather History Date:

Sunday, May 25, 2014

  Actual Average Record
Temperature  
Mean Temperature 69 °F -  
Max Temperature 78 °F 77 °F 100 °F (2012)
Min Temperature 60 °F 53 °F 37 °F (2001)
Cooling Degree Days 4    
Growing Degree Days 19 (Base 50)    
Moisture  
Dew Point 57 °F    
Average Humidity 70    
Maximum Humidity 94    
Minimum Humidity 34    
Precipitation  
Precipitation 0.08 in - - ()
Sea Level Pressure  
Sea Level Pressure 29.91 in    
Wind  
Wind Speed 11 mph (South)    
Max Wind Speed 18 mph    
Max Gust Speed 22 mph    
Visibility 9 miles    
Events Rain    
Averages and records for this station are not official NWS values.
T = Trace of Precipitation, MM = Missing Value Source: NWS Daily Summary

Daily Weather History Graph

Daily Weather History Graph

Search for Another Location

Airport or City:

Trip Planner

Search our weather history database for the weather conditions in past years. The results will help you decide how hot, cold, wet, or windy it might be!

Date:

Astronomy

May. 25, 2014 Rise Set
Actual Time 6:22 AM CDT 8:51 PM CDT
Civil Twilight 5:52 AM CDT 9:21 PM CDT
Nautical Twilight 5:15 AM CDT 9:58 PM CDT
Astronomical Twilight 4:34 AM CDT 10:40 PM CDT
Moon 4:24 AM CDT (5/25) 5:56 PM CDT (5/25)
Length of Visible Light 15h 28m
Length of Day
14h 28m
Waning Crescent, 10% of the Moon is Illuminated
May 25
Waning Crescent
May 28
New
Jun 5
First Quarter
Jun 12
Full
Jun 19
Last Quarter

Hourly Weather History & Observations

Time (CDT) Temp. Dew Point Humidity Pressure Visibility Wind Dir Wind Speed Gust Speed Precip Events Conditions
12:52 AM 64.4 °F 57.2 °F 77% 30.00 in 10.0 mi South 9.2 mph - N/A   Clear
1:52 AM 64.9 °F 59.0 °F 81% 29.90 in 9.0 mi South 10.4 mph - N/A   Overcast
2:52 AM 64.0 °F 60.1 °F 87% 29.88 in 10.0 mi South 13.8 mph - N/A   Mostly Cloudy
3:52 AM 62.6 °F 60.8 °F 94% 29.95 in 9.0 mi South 10.4 mph - N/A   Clear
4:52 AM 63.0 °F 60.1 °F 90% 29.86 in 8.0 mi SSE 11.5 mph - N/A   Mostly Cloudy
5:42 AM 63.0 °F 60.1 °F 90% 29.97 in 4.0 mi South 12.7 mph 19.6 mph 0.01 in Rain Light Rain
5:52 AM 63.0 °F 60.1 °F 90% 29.88 in 5.0 mi SSW 16.1 mph - 0.02 in Rain Light Rain
6:52 AM 62.6 °F 59.0 °F 88% 29.95 in 8.0 mi SW 16.1 mph 19.6 mph N/A Rain Light Rain
7:40 AM 60.1 °F 55.9 °F 86% 29.98 in 2.0 mi WNW 4.6 mph - 0.05 in Rain Rain
7:52 AM 60.1 °F 55.9 °F 86% 29.94 in 7.0 mi SSW 9.2 mph - 0.06 in Rain Light Rain
8:52 AM 60.1 °F 55.9 °F 86% 29.87 in 10.0 mi East 10.4 mph - 0.01 in Rain Light Rain
9:52 AM 62.6 °F 57.2 °F 82% 29.92 in 10.0 mi East 11.5 mph - N/A   Clear
10:52 AM 64.9 °F 57.9 °F 78% 29.91 in 10.0 mi East 9.2 mph - N/A   Clear
11:52 AM 68.0 °F 57.9 °F 70% 29.94 in 10.0 mi SW 4.6 mph - N/A   Clear
12:52 PM 70.0 °F 59.0 °F 68% 29.93 in 10.0 mi SSW 10.4 mph - N/A   Clear
1:52 PM 73.0 °F 55.9 °F 55% 29.92 in 10.0 mi SSW 12.7 mph - N/A   Clear
2:52 PM 75.9 °F 53.1 °F 45% 29.91 in 10.0 mi South 16.1 mph - N/A   Partly Cloudy
3:52 PM 75.9 °F 54.0 °F 46% 29.89 in 10.0 mi SSW 13.8 mph 19.6 mph N/A   Clear
4:52 PM 77.0 °F 55.0 °F 47% 29.86 in 10.0 mi South 15.0 mph 21.9 mph N/A   Clear
5:52 PM 75.9 °F 53.1 °F 45% 29.86 in 10.0 mi SSW 18.4 mph - N/A   Clear
6:52 PM 75.0 °F 52.0 °F 44% 29.85 in 10.0 mi South 17.3 mph - N/A   Clear
7:52 PM 72.0 °F 55.0 °F 55% 29.89 in 10.0 mi South 15.0 mph - N/A   Clear
8:52 PM 68.0 °F 53.1 °F 59% 29.92 in 10.0 mi South 15.0 mph - N/A   Clear
9:52 PM 66.9 °F 54.0 °F 63% 29.93 in 9.0 mi SSW 12.7 mph - N/A   Clear
10:52 PM 64.9 °F 54.0 °F 68% 29.93 in 10.0 mi South 9.2 mph - N/A   Clear
11:52 PM 63.0 °F 55.0 °F 75% 29.92 in 10.0 mi South 8.1 mph - N/A   Partly Cloudy